Location: ??
(35.5052°N, 139.7262°E)
Time: 01:06:54
(UTC+00:00)

FENGYUN 1C DEB - Visible Passes

Search period start: 15 August 2022 00:00
Search period end: 25 August 2022 00:00
Orbit: 778 x 905 km, 99.1° (Epoch: 08 August)

Date Brightness Start Highest point End Pass type
(mag) Time Alt. Az. Time Alt. Az. Time Alt. Az.
15 Aug ? 10:32:57 17° ESE 10:36:06 31° ENE 10:40:37 10° N visible
15 Aug ? 12:14:45 23° SW 12:16:31 27° W 12:20:54 10° NW visible
16 Aug ? 10:18:18 13° ESE 10:21:39 23° ENE 10:25:37 10° NNE visible
16 Aug ? 12:00:07 29° SW 12:01:52 38° W 12:06:41 10° NNW visible
17 Aug ? 10:04:01 10° ESE 10:07:13 17° ENE 10:10:24 10° NNE visible
17 Aug ? 11:45:29 37° SSW 11:47:15 53° W 11:52:19 10° NNW visible
18 Aug ? 09:50:59 10° E 09:52:50 12° ENE 09:54:41 10° NE visible
18 Aug ? 11:30:50 41° S 11:32:40 75° WSW 11:37:50 10° NNW visible
19 Aug ? 11:16:10 40° SSE 11:18:05 79° ENE 11:23:15 10° N visible
20 Aug ? 11:01:31 34° SE 11:03:32 56° ENE 11:08:33 10° N visible
20 Aug ? 12:43:19 14° WSW 12:44:17 14° W 12:47:02 10° WNW visible
21 Aug ? 10:46:51 27° ESE 10:48:59 40° ENE 10:53:46 10° N visible
21 Aug ? 12:28:39 19° WSW 12:29:34 20° W 12:33:21 10° NW visible
22 Aug ? 10:32:11 21° ESE 10:34:29 29° ENE 10:38:53 10° N visible
22 Aug ? 12:14:00 27° WSW 12:14:52 28° W 12:19:17 10° NW visible
23 Aug ? 10:17:31 15° ESE 10:20:00 21° ENE 10:23:48 10° NNE visible
23 Aug ? 11:59:20 37° WSW 12:00:12 40° W 12:05:01 10° NNW visible
24 Aug ? 10:02:50 11° E 10:05:34 16° ENE 10:08:29 10° NNE visible
24 Aug ? 11:44:39 49° SW 11:45:33 56° WSW 11:50:36 10° NNW visible
